Location: Limerick
(52.6650°N, 8.6230°W)
Time: 05:08:23
(UTC+00:00)

ISS - Pass Details

Date: 09 December 2019
Orbit: 411 x 421 km, 51.6° (Epoch: 15 December)

Event Time Altitude Azimuth Distance (km) Brightness Sun altitude
Rises 18:08:53 0° 280° (W) 2,359 1.2 -15.4°
Reaches altitude 10° 18:11:18 10° 264° (W) 1,495 0.3 -15.7°
Maximum altitude 18:13:53 21° 213° (SSW) 1,007 -1.2 -16.1°
Drops below altitude 10° 18:16:28 10° 163° (SSE) 1,494 -1.0 -16.5°
Enters shadow 18:18:09 - 150° (SSE) 2,077 -0.4 -16.7°
